Location: Newark
(43.4306°N, 0.3089°E)
Time: 12:26:38
(UTC+00:00)

Vanguard 1 Rocket - Pass Details

Date: 28 August 2019
Orbit: 650 x 4226 km, 34.3° (Epoch: 20 October)

Event Time Altitude Azimuth Distance (km) Brightness Sun altitude
Exits shadow 03:04:41 28° 166° (SSE) 1,363 8.0 -22.2°
Drops below altitude 10° 03:08:49 10° 121° (ESE) 2,593 10.0 -21.7°
Sets 03:12:18 0° 111° (ESE) 3,937 11.1 -21.2°
